This demonstration page uses our WeatherBlox Daily Observations layout. Learn more.

Left ArrowRight Arrow

Hourly Observations for October 13, 2018

Temp ( °F °C ) Dew Point ( °F °C ) Humidity (%) Winds ( mph kmh ) Pressure ( in mb ) Visibility ( mi km ) Precip ( " mm )
12:51 am 00:51 Cloudy 60 15.6 58 14.4 93 93 E 5 7 29.82 1010 10 16 0.00 0.00
1:51 am 01:51 Cloudy 61 16.1 58 14.4 90 90 SE 3 6 29.83 1010 10 16 0.00 0.00
2:51 am 02:51 Cloudy 60 15.6 59 15 96 96 SE 3 6 29.81 1010 10 16 0.00 0.00
3:51 am 03:51 Cloudy 60 15.6 58 14.4 93 93 SE 5 7 29.80 1009 10 16 0.00 0.00
4:51 am 04:51 Partly Cloudy 59 15 57 13.9 93 93 ESE 6 9 29.81 1009 10 16 0.00 0.00
5:51 am 05:51 Cloudy 59 15 57 13.9 93 93 ESE 5 7 29.82 1010 10 16 0.00 0.00
6:51 am 06:51 Mostly Cloudy 59 15 57 13.9 93 93 ESE 5 7 29.83 1010 10 16 0.00 0.00
7:51 am 07:51 Mostly Sunny 63 17.2 58 14.4 84 84 ESE 5 7 29.84 1010 10 16 0.00 0.00
8:51 am 08:51 Sunny 66 18.9 57 13.9 73 73 E 8 13 29.84 1010 10 16 0.00 0.00
9:51 am 09:51 Sunny 66 18.9 57 13.9 73 73 SSE 6 9 29.83 1010 10 16 0.00 0.00
10:51 am 10:51 Mostly Cloudy 68 20 57 13.9 68 68 S 5 7 29.80 1009 10 16 0.00 0.00
11:51 am 11:51 Cloudy 68 20 56 13.3 65 65 SW 6 9 29.80 1009 10 16 0.00 0.00
12:51 pm 12:51 Cloudy with Light Rain 65 18.3 60 15.6 84 84 SW 7 11 29.77 1008 10 16 0.01 0.25
1:35 pm 13:35 Cloudy 64 17.8 62 16.7 93 93 W 5 7 29.77 1008 10 16 0.01 0.25
1:51 pm 13:51 Cloudy 64 17.8 61 16.1 90 90 W 7 11 29.75 1008 10 16 0.01 0.25
2:28 pm 14:28 Cloudy with Rain 63 17.2 62 16.7 97 97 W 5 7 29.77 1008 2 3 0.02 0.51
2:33 pm 14:33 Cloudy with Light Rain 63 17.2 60 15.6 90 90 W 3 6 29.77 1008 3 5 0.03 0.76
2:51 pm 14:51 Cloudy with Light Rain 63 17.2 61 16.1 93 93 WSW 6 9 29.77 1008 8 13 0.03 0.76
3:21 pm 15:21 Cloudy with Light Rain 61 16.1 59 15 93 93 SW 9 15 29.77 1008 2 3 0.03 0.76
3:30 pm 15:30 Cloudy with Light Rain 61 16 57 14 88 88 SSW 9 15 29.77 1008 7 11 0.00 0.00
3:51 pm 15:51 Cloudy 60 15.6 58 14.4 93 93 NW 6 9 29.76 1008 10 16 0.04 1.02
4:43 pm 16:43 Cloudy with Light Rain 59 15 58 14.4 96 96 WSW 5 7 29.80 1009 2 3 0.02 0.51
4:51 pm 16:51 Cloudy with Light Rain 59 15 59 15 100 100 W 5 7 29.77 1008 4 6 0.03 0.76
5:00 pm 17:00 Cloudy with Light Rain 61 16 59 15 94 94 W 5 7 29.77 1008 7 11 0.00 0.00
5:42 pm 17:42 Cloudy 59 15 57 14 94 94 WNW 6 9 29.80 1009 10 16 0.00 0.00
5:51 pm 17:51 Cloudy 59 15 58 14.4 96 96 NW 6 9 29.77 1008 10 16 0.01 0.25
6:08 pm 18:08 Cloudy 59 15 59 15 100 100 NW 8 13 29.80 1009 10 16 0.00 0.00
6:16 pm 18:16 Cloudy 59 15 59 15 100 100 NW 7 11 29.80 1009 10 16 0.00 0.00
6:51 pm 18:51 Cloudy 59 15 59 15 100 100 NW 13 20 29.77 1008 10 16 0.00 0.00
7:01 pm 19:01 Mostly Cloudy 59 15 59 15 100 100 NW 8 13 29.83 1010 10 16 0.00 0.00
7:51 pm 19:51 Mostly Clear 58 14.4 58 14.4 100 100 NNW 5 7 29.77 1008 10 16 0.00 0.00
8:30 pm 20:30 Partly Cloudy with Mist and Fog 57 14 57 14 100 100 WSW 7 11 29.83 1010 3 4 0.00 0.00
8:34 pm 20:34 Partly Cloudy with Mist and Fog 57 14 57 14 100 100 SW 7 11 29.83 1010 1 1 0.00 0.00
8:43 pm 20:43 Mostly Cloudy with Mist and Fog 58 14.4 58 14.4 100 100 WSW 7 11 29.83 1010 1 2 0.00 0.00
8:47 pm 20:47 Mostly Cloudy with Mist and Fog 57 14 57 14 100 100 SW 7 11 29.83 1010 4 6 0.00 0.00
8:51 pm 20:51 Mostly Cloudy 58 14.4 58 14.4 100 100 SSW 8 13 29.80 1009 9 14 0.00 0.00
9:51 pm 21:51 Cloudy 58 14.4 58 14.4 100 100 SW 8 13 29.80 1009 10 16 0.00 0.00
10:06 pm 22:06 Cloudy 57 13.9 57 13.9 100 100 W 5 7 29.83 1010 9 14 0.00 0.00
10:14 pm 22:14 Cloudy with Light Rain 57 14 57 14 100 100 N 5 7 29.83 1010 10 16 0.00 0.00
10:31 pm 22:31 Cloudy with Light Rain 58 14.4 58 14.4 100 100 S 3 6 29.85 1011 10 16 0.01 0.25
10:51 pm 22:51 Cloudy with Light Rain 58 14.4 58 14.4 100 100 S 3 6 29.80 1009 5 8 0.04 1.02
11:04 pm 23:04 Cloudy with Light Rain 57 14 57 14 100 100 SSW 3 6 29.83 1010 10 16 0.00 0.00
11:51 pm 23:51 Cloudy with Light Rain 58 14.4 58 14.4 100 100 Calm 29.79 1009 10 16 0.00 0.03

Powered by AerisWeather